This is the latest recevied weather packets stored in our database for station/object K7PMV-13. If no packets are shown the sender has not sent any weather packets the latest 10 day(s).
| Time | Temp. | Humidity | Pressure | Rain* | Wind** | Luminosity | Snow |
|---|---|---|---|---|---|---|---|
| 1777775127 | 30° C | 21% | 1005 hPa | 0 mm | - | 0 W/m² | - |
| 1777774824 | 30° C | 23% | 1004.9 hPa | 0 mm | - | 0 W/m² | - |
| 1777774516 | 30.56° C | 23% | 1004.8 hPa | 0 mm | - | 5 W/m² | - |
| 1777774206 | 31.11° C | 19% | 1004.9 hPa | 0 mm | - | 0 W/m² | - |
| 1777773901 | 31.11° C | 19% | 1004.9 hPa | 0 mm | - | 7 W/m² | - |
| 1777773598 | 31.11° C | 19% | 1005 hPa | 0 mm | - | 12 W/m² | - |
| 1777773296 | 31.67° C | 19% | 1005.1 hPa | 0 mm | - | 19 W/m² | - |
| 1777772993 | 31.67° C | 18% | 1005 hPa | 0 mm | - | 26 W/m² | - |
| 1777772691 | 32.22° C | 18% | 1005.2 hPa | 0 mm | - | 35 W/m² | - |
| 1777772388 | 32.22° C | 18% | 1005.3 hPa | 0 mm | - | 46 W/m² | - |
| 1777772085 | 32.22° C | 18% | 1005.3 hPa | 0 mm | - | 54 W/m² | - |
| 1777771783 | 32.22° C | 17% | 1005.2 hPa | 0 mm | - | 60 W/m² | - |
| 1777771480 | 32.22° C | 17% | 1005.2 hPa | 0 mm | - | 67 W/m² | - |
| 1777771178 | 32.22° C | 17% | 1005.3 hPa | 0 mm | - | 93 W/m² | - |
| 1777770876 | 32.22° C | 18% | 1005.4 hPa | 0 mm | - | 74 W/m² | - |
| 1777770566 | 32.78° C | 17% | 1005.4 hPa | 0 mm | - | 84 W/m² | - |
| 1777770263 | 32.78° C | 17% | 1005.4 hPa | 0 mm | - | 100 W/m² | - |
| 1777769953 | 32.78° C | 17% | 1005.4 hPa | 0 mm | - | 120 W/m² | - |
| 1777769651 | 32.78° C | 18% | 1005.5 hPa | 0 mm | - | 128 W/m² | - |
| 1777769348 | 32.78° C | 17% | 1005.3 hPa | 0 mm | - | 132 W/m² | - |
| 1777769045 | 32.78° C | 17% | 1005.4 hPa | 0 mm | - | 135 W/m² | - |
| 1777768743 | 32.78° C | 17% | 1005.4 hPa | 0 mm | - | 135 W/m² | - |
| 1777768441 | 33.33° C | 17% | 1005.3 hPa | 0 mm | - | 156 W/m² | - |
| 1777768138 | 32.78° C | 17% | 1005.4 hPa | 0 mm | - | 197 W/m² | - |
| 1777767836 | 33.33° C | 17% | 1005.4 hPa | 0 mm | - | 176 W/m² | - |
* Rain latest hour (hover to see other rain measurements)
** Current wind speed in m/s (hover to see current wind gust speed)